GFSSW_925_thetae_210.txt.gz
Theta_e
303 303 306 308 308 309 309 310 310 309 312 312 313 313 313 314 315 318 317 312 314 312 314 320 320 320 319 322 322 323 322 324 325 326 326 324 322 321 320 319 320 320 321 320 319
308 303 304 307 308 308 309 310 311 310 311 313 313 313 314 315 317 316 312 310 311 314 320 319 321 321 321 322 321 320 322 325 323 322 322 320 318 319 318 319 319 320 320 318 318
310 305 303 306 308 308 309 310 312 310 311 312 312 315 313 312 321 317 309 309 310 315 317 316 318 321 322 322 322 322 321 321 321 318 318 318 318 319 318 318 319 318 318 318 317
312 308 303 304 308 309 308 310 312 312 311 312 312 312 312 315 321 313 309 310 313 314 317 317 318 319 320 320 319 317 320 318 319 318 317 317 318 317 318 318 318 318 317 317 318
312 310 305 304 307 309 309 309 312 313 312 312 312 313 313 321 317 313 314 316 315 316 316 317 318 319 319 319 318 319 320 319 318 318 318 318 317 317 317 318 318 318 318 318 318
311 311 306 305 306 310 310 308 312 313 313 313 313 312 316 322 315 315 315 315 315 316 316 316 317 316 317 318 318 319 320 318 318 318 318 317 317 317 317 319 319 319 319 319 319
311 311 308 305 309 310 308 308 312 313 312 312 311 315 321 319 315 314 315 315 315 316 317 316 315 316 318 317 319 317 316 317 318 318 318 318 316 318 319 319 320 320 320 319 318
311 311 310 305 309 308 310 309 312 313 313 313 312 317 323 315 315 315 315 316 316 316 316 315 315 316 317 318 318 316 318 318 319 318 318 317 317 319 320 320 320 321 320 318 320
312 311 311 307 309 308 310 309 312 313 313 313 316 320 321 314 314 315 315 316 316 316 317 315 315 317 318 317 317 319 320 320 320 320 319 318 318 319 320 321 321 321 319 319 322
313 312 311 310 309 308 311 312 315 313 314 316 317 317 319 316 316 315 315 315 316 317 317 317 319 318 319 318 319 321 321 321 319 319 320 319 319 320 321 322 321 320 318 321 321
314 313 312 311 309 308 309 315 317 319 316 320 320 317 317 316 315 314 315 316 316 317 319 320 319 318 320 321 320 317 317 318 318 320 320 321 320 321 322 322 322 320 321 321 321
314 314 313 311 310 309 309 318 318 317 318 320 319 319 318 316 316 316 316 316 318 319 319 319 318 319 320 318 317 316 317 319 320 321 320 320 321 321 323 323 322 320 322 321 321
309 313 314 312 311 310 315 314 315 316 318 319 318 319 318 316 315 316 318 317 318 318 318 318 319 319 318 317 316 318 319 320 321 320 319 321 323 325 324 322 320 322 322 322 321
299 304 312 313 315 316 316 315 315 318 320 319 320 319 318 317 316 316 317 317 316 316 316 318 319 317 317 316 317 318 319 320 320 319 322 323 325 324 323 321 321 322 322 323 321
298 299 302 313 316 316 316 315 316 320 325 322 320 318 318 317 319 318 317 316 315 315 317 316 317 318 317 318 318 319 318 318 319 320 323 324 325 324 323 323 322 323 322 322 320
298 299 301 315 317 317 316 315 318 323 323 322 320 318 317 317 317 319 318 316 315 316 317 317 318 318 317 316 318 318 317 319 322 324 331 327 325 325 324 324 323 322 321 320 320
298 299 307 314 317 316 315 316 320 322 321 321 319 319 318 318 317 317 317 316 316 319 318 317 318 317 317 316 317 318 321 335 334 332 334 327 326 326 325 324 324 322 320 320 320
297 303 311 317 319 316 316 318 320 321 322 322 319 317 316 317 318 318 318 318 317 318 319 318 323 319 318 318 320 322 323 331 335 331 327 325 325 324 327 326 323 321 321 321 321
302 309 314 314 318 317 318 319 319 320 320 321 322 318 318 317 316 316 317 318 318 318 319 320 318 320 320 318 317 322 321 323 328 326 324 323 324 326 326 324 323 323 323 321 320
306 312 314 318 319 318 319 319 318 317 318 319 321 321 319 317 317 317 317 317 318 318 319 319 322 321 320 317 317 319 322 328 327 330 329 324 323 323 327 326 325 323 321 321 321
308 310 315 316 316 318 319 318 317 317 317 318 319 320 320 318 317 318 319 317 317 317 317 317 323 319 319 320 319 319 321 322 323 326 329 328 323 327 323 323 323 322 322 321 320
307 309 310 308 310 314 316 316 315 317 317 317 319 320 320 319 320 320 319 318 317 317 317 317 322 326 322 320 320 321 325 325 336 328 325 325 327 323 324 322 322 322 322 320 319
308 307 308 310 313 315 315 314 313 313 315 316 318 319 320 319 320 319 321 319 317 317 318 319 324 330 325 323 321 321 321 320 324 328 328 328 324 324 323 323 324 324 321 320 319
306 306 308 310 312 313 314 315 315 317 318 315 317 319 320 319 318 318 317 318 318 316 321 319 323 324 329 326 323 326 325 322 323 331 327 325 323 322 322 323 323 323 320 320 319
306 305 306 306 307 309 310 311 311 313 315 317 317 320 321 322 319 318 318 318 317 321 317 321 321 319 320 320 319 320 320 319 321 322 327 324 323 323 323 323 322 321 320 320 318
306 307 307 308 308 307 306 306 306 307 309 313 315 318 321 322 321 320 318 318 320 316 317 321 318 318 319 319 320 320 319 319 319 320 320 320 322 321 322 320 320 320 320 318 317
303 304 305 307 307 306 306 306 306 306 307 310 312 316 316 317 317 316 318 318 319 320 320 321 321 321 324 321 322 325 321 320 321 321 321 323 321 321 320 320 320 320 318 317 315

GFSSW_925_thetae_216.txt.gz
Theta_e
311 310 304 306 307 308 308 310 310 310 311 311 312 313 313 312 313 315 320 315 312 313 314 316 319 320 320 315 316 314 312 314 319 317 316 313 314 315 316 316 315 314 314 315 316
310 308 304 304 307 308 308 309 311 310 311 311 312 312 312 312 313 318 317 310 311 314 312 315 315 314 315 314 314 312 310 315 315 314 314 314 314 316 315 315 315 314 314 315 316
311 310 306 305 305 308 309 308 311 311 311 311 311 311 311 311 315 318 311 310 313 311 312 313 315 313 315 316 316 313 313 314 315 313 314 314 315 315 315 315 314 313 313 314 315
312 311 310 306 308 309 310 309 310 312 311 311 311 311 311 314 318 314 310 312 312 313 313 316 312 313 314 315 314 314 313 314 314 314 314 315 314 315 314 314 313 312 313 314 314
313 312 312 310 308 308 307 308 308 311 312 312 312 311 311 312 315 315 311 314 314 315 315 315 311 310 311 312 313 314 314 315 314 311 312 313 314 314 313 313 312 312 314 313 312
311 312 312 312 310 308 307 309 309 310 312 312 312 312 314 315 316 312 312 314 314 315 314 312 312 312 310 312 312 313 314 313 312 313 313 313 314 315 313 313 313 314 314 312 314
306 308 310 311 311 310 308 309 308 310 312 312 312 313 315 312 315 315 314 314 314 314 314 315 313 311 311 311 312 313 314 310 311 312 312 312 314 314 313 313 314 314 313 315 316
299 301 305 309 311 311 309 308 309 311 312 312 312 314 312 315 318 315 314 314 314 315 315 315 315 311 312 311 311 313 311 311 310 310 311 312 311 313 312 312 314 314 315 317 317
299 300 301 306 309 311 311 308 311 312 312 312 313 315 314 317 313 314 314 313 315 315 315 315 314 311 312 311 309 310 309 310 311 310 313 312 312 313 313 313 314 314 315 318 316
299 299 300 302 307 309 311 309 310 314 314 313 315 312 312 315 314 314 314 315 314 313 313 314 310 312 309 308 311 312 311 313 316 315 314 313 312 312 312 313 313 314 315 317 316
298 299 300 302 305 309 312 312 312 313 315 315 315 312 314 316 315 314 314 314 314 313 312 312 311 312 313 311 311 314 314 313 313 314 316 312 312 312 313 314 315 314 314 315 315
298 299 299 301 303 314 313 311 314 313 310 312 314 314 315 316 317 314 314 313 313 312 312 312 313 314 314 314 314 314 314 313 313 315 317 315 314 313 314 314 314 313 315 315 315
298 299 300 301 305 315 313 315 315 315 314 315 314 314 315 316 317 314 314 313 314 313 313 313 315 315 316 315 316 315 314 314 314 316 315 315 315 314 315 315 314 314 315 316 316
299 300 300 301 310 308 315 316 317 315 315 318 317 316 314 316 316 315 315 314 314 314 313 312 312 314 314 316 315 315 313 315 316 315 316 314 315 314 314 314 315 314 315 315 314
299 300 300 303 307 311 313 317 316 316 315 320 317 317 314 315 316 315 315 314 314 315 314 312 311 313 314 315 314 313 315 314 315 314 314 314 313 312 315 317 315 315 316 314 313
300 301 302 307 305 310 316 317 314 318 322 322 317 316 314 314 316 316 315 314 313 313 312 310 311 313 315 315 314 315 314 314 314 311 314 313 313 315 318 319 316 316 315 314 313
300 301 306 309 307 312 314 312 312 317 317 319 318 316 315 315 315 317 317 315 313 313 312 313 313 312 315 315 314 312 312 314 321 320 318 319 317 316 319 320 316 317 315 314 313
301 301 309 310 312 313 313 311 316 315 317 317 315 315 316 317 316 317 317 316 313 312 312 314 315 315 314 313 312 311 312 317 326 324 325 320 323 319 320 317 317 316 315 314 313
300 301 309 304 308 315 310 314 314 316 316 315 315 316 316 316 316 315 314 315 315 312 313 314 315 315 317 315 314 314 314 314 319 320 319 319 319 323 321 319 318 317 316 316 314
300 305 308 304 307 313 313 316 315 315 315 315 315 316 316 314 315 315 316 316 315 315 313 315 316 316 317 315 315 315 317 322 317 324 323 320 318 321 323 321 320 319 317 315 314
303 303 306 303 306 303 313 314 315 314 313 311 311 312 314 316 317 316 316 316 317 317 314 315 315 317 317 316 315 314 314 317 319 318 323 320 319 320 320 320 319 316 315 313 313
300 297 300 303 302 302 304 308 309 310 311 311 312 312 313 310 317 318 318 318 317 317 316 313 314 316 317 317 315 314 313 315 318 320 318 318 318 318 318 317 316 316 316 315 312
297 298 303 302 300 300 303 307 308 309 307 307 308 307 306 308 315 318 318 318 318 318 316 313 312 312 315 315 318 318 316 315 315 314 318 319 319 319 317 316 315 315 315 314 311
297 300 297 298 300 304 304 305 307 306 306 305 304 305 305 305 311 316 316 316 317 318 325 321 312 313 317 316 316 320 320 317 317 317 319 320 320 320 319 318 317 316 313 313 310
297 299 301 300 302 302 302 303 304 304 305 303 303 304 304 304 304 305 315 315 315 317 314 313 316 316 316 316 320 320 320 318 319 319 320 320 319 319 320 320 319 315 314 313 311
299 299 297 299 300 301 302 302 303 303 304 304 303 303 303 303 305 310 315 314 315 314 314 314 319 317 318 319 321 320 317 317 316 317 318 320 321 316 316 315 317 316 315 313 312
299 298 296 298 299 300 300 301 302 302 302 302 302 303 304 304 306 307 307 310 312 312 312 313 318 315 319 318 319 321 317 316 315 314 316 317 316 316 318 318 316 314 313 312 311

GFSSW_925_thetae_219.txt.gz
Theta_e
312 310 305 304 306 307 308 308 310 310 310 311 311 312 312 311 311 315 317 317 313 312 314 314 317 316 319 317 314 310 311 314 317 315 315 313 314 314 313 313 313 314 313 314 314
311 311 309 307 306 308 309 308 309 311 311 311 311 311 311 311 312 316 318 315 309 313 311 313 313 313 314 314 312 310 310 314 315 311 311 313 314 315 313 313 313 313 313 313 314
311 311 311 309 308 308 308 308 308 310 311 311 311 311 311 311 314 317 314 309 311 311 312 312 314 314 316 314 315 311 312 313 314 312 310 312 314 314 310 313 311 312 312 312 312
307 307 309 310 310 309 307 307 308 308 311 311 311 311 311 315 317 315 311 310 311 311 313 315 311 311 312 314 312 315 313 312 313 315 313 312 313 314 313 312 312 311 311 311 310
300 301 305 308 310 310 309 308 309 309 311 311 311 311 311 311 313 318 310 311 313 314 314 313 310 310 310 309 310 312 312 312 312 311 312 311 313 313 312 312 310 310 311 312 312
299 300 302 306 308 310 309 308 308 309 311 311 311 311 313 312 317 314 311 313 314 314 313 312 312 310 310 311 311 311 313 312 310 310 311 312 312 312 313 311 311 310 310 312 314
299 299 300 302 305 309 309 309 308 309 311 311 311 312 314 309 316 311 311 314 314 314 313 313 312 312 311 311 310 312 313 310 311 310 311 311 313 312 312 310 310 311 310 313 314
298 299 300 301 302 306 309 309 309 310 311 311 311 313 309 312 316 317 314 314 314 314 314 314 313 310 312 311 309 311 308 311 310 309 310 311 309 311 310 311 311 311 313 315 316
298 299 300 301 302 305 312 309 310 312 312 312 312 314 313 315 315 318 314 313 314 314 314 314 313 309 309 308 308 307 308 310 310 310 311 311 310 310 311 309 311 311 314 317 315
299 299 300 301 302 306 314 312 312 312 314 314 315 308 307 313 314 314 315 313 313 312 312 312 308 310 306 307 307 311 311 309 313 314 312 312 311 310 312 311 312 310 314 316 315
299 300 300 301 302 310 313 313 310 310 313 312 314 308 311 315 314 312 313 313 312 310 310 311 310 310 311 309 310 312 312 312 311 312 314 312 310 310 310 311 310 310 314 315 315
299 300 300 302 303 314 311 311 313 313 310 310 311 312 313 315 316 315 313 312 312 311 311 310 310 311 312 312 312 312 311 312 312 312 315 313 313 312 313 313 311 311 312 315 313
300 300 300 303 309 308 312 315 314 314 312 312 311 312 313 313 314 315 312 311 312 312 312 311 313 314 314 314 314 312 311 312 313 314 314 314 313 313 312 311 312 311 312 315 314
300 300 301 305 305 304 313 314 316 313 311 313 317 315 314 314 315 316 314 312 313 312 312 311 311 312 313 313 313 313 312 313 315 314 313 313 313 312 313 313 312 312 310 314 313
300 300 303 306 306 304 310 314 316 314 310 315 316 315 313 314 315 314 313 313 313 313 312 313 312 312 312 313 313 313 313 314 314 312 313 313 313 311 311 313 312 311 310 313 313
300 300 308 309 308 308 312 315 313 314 313 320 314 314 314 313 315 315 315 312 312 313 311 311 310 311 310 313 314 313 313 313 312 310 313 312 312 310 311 315 317 315 313 312 312
299 300 307 306 305 312 314 309 307 314 313 317 315 315 314 314 314 315 315 314 312 313 311 312 312 311 311 313 313 311 310 312 312 317 314 315 313 310 313 318 318 315 313 312 311
299 300 306 302 304 314 313 309 311 311 315 314 314 315 315 314 314 315 316 315 314 311 311 313 314 313 313 312 312 310 310 314 314 321 325 318 321 319 319 316 314 314 313 312 311
299 300 305 302 304 312 309 311 309 314 315 314 314 315 315 314 313 313 314 314 314 310 313 312 313 313 313 313 312 312 312 311 316 318 317 318 316 318 320 317 316 314 314 313 312
299 301 303 303 303 311 311 315 314 314 313 313 314 314 314 314 315 315 314 315 315 313 310 313 314 313 315 314 313 312 313 316 314 322 322 318 318 317 321 320 318 316 315 314 312
299 297 301 302 303 302 310 312 312 309 309 310 311 311 314 308 310 315 316 316 317 318 314 312 312 314 316 314 314 314 315 316 316 315 319 320 319 315 318 318 318 315 314 313 312
296 294 300 302 298 299 302 304 307 308 307 307 307 309 306 305 311 316 317 317 314 318 318 312 312 315 315 315 315 313 313 317 320 319 317 316 320 314 317 316 316 315 314 312 311
294 295 300 302 297 300 303 305 306 306 306 306 304 304 304 304 305 311 315 313 316 317 318 319 315 313 314 314 315 316 313 314 313 312 318 319 319 316 315 317 314 313 313 313 310
295 296 297 296 298 302 301 302 305 303 303 304 303 303 303 303 303 306 306 307 314 314 314 315 319 318 319 315 315 318 318 313 313 313 317 317 317 318 317 316 315 313 313 312 309
294 297 298 298 299 299 299 300 299 300 302 301 302 303 303 302 302 302 304 305 309 310 313 311 315 314 314 315 314 315 318 317 314 315 315 316 315 315 315 316 317 315 312 312 310
296 296 295 296 297 299 299 300 301 300 300 301 302 302 301 301 302 303 305 306 306 308 310 310 311 314 314 317 317 316 318 318 317 316 315 316 316 315 314 316 315 315 313 312 311
297 297 296 297 296 298 298 299 300 300 300 300 299 301 302 302 303 304 304 304 305 307 309 309 310 313 315 316 316 320 317 316 317 314 315 316 316 315 315 314 313 313 313 312 311

GFSSW_925_thetae_222.txt.gz
Theta_e
308 309 309 308 308 308 308 308 308 310 310 310 311 311 311 311 311 314 315 317 314 311 313 314 316 315 318 316 312 308 311 313 315 316 315 311 313 312 311 313 313 312 312 313 327
302 303 307 308 309 308 307 307 307 309 310 310 311 311 311 310 312 314 316 316 311 312 311 312 313 313 313 314 310 310 311 313 312 311 311 311 312 312 313 313 312 312 311 313 316
300 300 302 306 307 309 308 307 308 308 310 311 311 311 310 311 312 315 315 312 310 311 312 313 313 313 315 313 312 309 312 311 313 310 309 311 311 312 310 313 311 311 310 310 311
299 299 300 302 304 307 308 308 308 308 310 311 311 311 310 313 316 314 311 310 311 312 313 314 309 310 310 313 310 315 312 311 312 313 311 311 311 311 311 311 310 310 309 308 310
298 299 299 300 301 303 306 308 308 308 310 311 311 311 311 309 311 317 309 311 313 314 312 310 309 309 310 309 309 312 312 311 312 309 310 310 312 312 311 311 309 309 310 308 309
299 299 299 300 301 302 304 308 308 308 310 311 311 311 311 310 314 314 309 312 313 313 312 311 311 310 309 310 310 310 311 310 310 310 310 311 312 312 311 309 308 309 309 309 311
299 299 300 300 301 302 305 310 308 308 310 311 311 313 311 307 314 314 310 312 313 313 312 312 311 312 309 311 309 311 312 311 310 310 311 310 311 311 311 308 308 308 309 311 312
299 299 300 301 302 303 310 311 309 310 310 311 311 313 306 311 314 316 316 313 313 313 313 313 311 308 310 310 308 309 308 310 310 308 309 310 309 310 309 308 308 308 309 312 312
299 299 300 301 302 305 313 312 309 311 311 311 312 312 309 312 314 315 316 313 312 313 313 313 310 307 308 307 307 306 309 309 310 307 310 309 310 309 307 308 309 308 309 312 313
299 300 300 301 303 307 314 313 313 312 313 313 315 308 307 310 315 314 317 313 312 311 310 309 306 308 305 304 306 308 310 309 310 312 309 309 308 308 309 308 309 308 310 313 314
299 300 300 303 304 312 315 314 310 310 311 311 312 308 307 313 313 311 313 312 311 309 310 310 309 309 310 308 309 311 311 312 310 310 313 310 309 308 308 310 308 308 310 313 315
299 299 302 308 307 306 315 311 312 313 312 309 310 310 313 313 313 314 312 311 311 310 310 308 309 309 310 311 312 312 313 311 309 311 313 313 311 310 311 310 309 308 308 313 313
299 299 306 310 312 304 313 312 311 312 310 311 310 311 311 312 312 313 311 310 311 310 310 310 312 312 312 313 313 312 311 310 311 313 313 313 312 313 312 311 311 309 309 311 314
299 299 305 310 304 304 309 311 313 312 309 311 316 314 313 311 313 313 312 311 311 310 309 310 310 311 311 312 311 312 310 311 313 312 311 312 311 311 311 311 311 310 307 309 313
298 299 303 306 308 305 309 312 313 311 310 312 314 313 312 313 314 314 312 312 311 312 311 312 310 311 311 311 311 312 311 311 313 311 312 312 312 310 309 311 311 309 307 307 312
298 299 301 304 305 305 313 314 311 310 314 316 313 313 313 313 314 313 313 311 311 311 311 311 310 310 310 310 310 311 310 310 311 308 311 311 311 310 310 311 315 315 313 309 310
298 299 302 302 300 309 313 307 304 310 311 315 313 313 313 313 313 314 314 313 311 312 312 311 311 310 310 312 311 309 310 312 313 314 313 312 312 310 310 311 316 316 313 310 310
299 300 304 302 302 309 311 307 308 307 314 313 313 314 314 312 312 312 314 313 312 310 309 312 313 312 311 311 310 309 310 313 315 313 314 317 320 318 317 315 313 312 311 310 310
300 299 302 301 302 308 308 308 304 311 313 312 311 313 313 313 313 313 312 313 313 310 312 311 312 311 311 311 311 311 311 309 312 315 317 316 315 313 318 316 314 313 312 311 310
298 297 300 301 302 309 309 313 312 308 309 311 312 312 312 311 312 312 314 314 317 316 314 312 313 312 313 312 312 311 311 313 310 318 319 315 316 316 320 318 316 315 313 312 311
297 294 299 302 302 301 304 310 309 307 306 309 310 311 310 304 306 311 314 314 315 317 314 311 311 313 315 313 313 315 314 314 313 312 316 316 317 313 313 316 316 314 313 312 311
295 296 299 301 297 296 300 303 305 306 305 306 304 306 304 304 305 311 315 313 314 317 317 315 311 313 314 312 312 313 313 315 316 317 314 313 317 314 316 314 314 314 314 312 310
293 294 299 301 299 298 300 301 303 302 302 303 304 302 303 303 304 305 311 306 307 312 315 316 311 313 315 312 314 315 311 314 311 311 317 318 318 313 315 315 314 315 313 312 310
293 296 296 295 296 299 299 299 301 299 299 302 301 299 302 302 302 302 302 304 303 305 309 313 313 311 313 313 314 316 316 312 313 313 317 316 317 317 316 316 315 313 311 310 311
292 294 296 297 298 296 297 297 297 298 299 299 299 301 300 301 301 301 302 302 305 305 306 308 309 313 313 315 313 315 316 315 313 314 315 316 313 315 315 315 314 314 312 312 311
295 295 294 294 295 296 297 298 300 299 299 300 300 300 298 300 300 302 301 303 305 304 305 306 308 311 309 306 307 314 316 317 314 315 314 314 314 312 310 312 313 313 313 313 312
296 295 295 297 297 297 296 298 299 297 298 299 298 299 299 300 299 299 301 301 302 303 303 304 305 307 307 305 307 308 311 316 317 315 315 315 315 312 313 313 312 312 312 313 312